FW7026 Weather Reports


Display with metric or nautical units.
time (UTC)temp
F
wind
direction
speed
MPH
gust
MPH
rain 1hr
in
rain 24hr
in
rain mn
in
humidity
%
barometer
mb
20260506214739 46 192 0.0 0.0 0.07 0.89 0.89 93 1004.3
20260506214236 46 269 0.0 0.0 0.07 0.89 0.89 93 1004.3
20260506213735 46 289 0.0 0.0 0.07 0.87 0.87 93 1004.3
20260506213231 46 108 0.0 0.0 0.07 0.87 0.87 93 1004.3
20260506212729 46 324 0.0 0.0 0.07 0.86 0.86 93 1004.3
20260506212224 46 162 0.0 0.0 0.07 0.85 0.85 93 1004.3
20260506211719 46 169 0.0 0.0 0.14 0.85 0.85 93 1004.3
20260506211210 46 354 0.0 0.0 0.07 0.84 0.84 93 1004.3
20260506210708 46 216 0.0 0.0 0.07 0.83 0.83 93 1004.3
20260506210204 46 54 0.0 0.0 0.07 0.83 0.83 93 1004.3
20260506205701 46 219 0.0 0.0 0.07 0.81 0.81 93 1004.3
20260506205156 46 14 0.0 0.0 0.14 0.81 0.81 93 1004.3
20260506204654 46 4 0.0 0.0 0.07 0.80 0.80 93 1004.3
20260506204150 46 45 0.0 0.0 0.07 0.79 0.79 93 1004.3
20260506203649 46 168 0.0 0.0 0.07 0.79 0.79 93 1004.6
20260506203146 46 207 0.0 0.0 0.07 0.78 0.78 93 1004.3
20260506202644 46 3 0.0 0.0 0.14 0.78 0.78 93 1004.3
20260506202139 46 167 0.0 0.0 0.14 0.77 0.77 93 1004.3
20260506201636 46 9 0.0 0.0 0.14 0.76 0.76 93 1004.6
20260506201133 46 119 0.0 0.0 0.14 0.74 0.74 93 1004.3
20260506200629 46 135 0.0 0.0 0.14 0.73 0.73 93 1004.6
20260506200126 46 133 0.0 0.0 0.21 0.72 0.72 93 1004.6
20260506195623 46 217 0.0 0.0 0.14 0.70 0.70 93 1004.9
20260506195119 46 314 0.0 0.0 0.14 0.69 0.69 93 1004.9
20260506194617 47 99 0.0 0.0 0.07 0.67 0.67 93 1004.6
20260506194113 47 140 0.0 0.0 0.07 0.66 0.66 93 1004.3
20260506193611 46 81 0.0 0.0 0.07 0.66 0.66 93 1004.6
20260506193108 46 113 0.0 0.0 0.07 0.65 0.65 93 1004.3
20260506192605 46 201 0.0 0.0 0.07 0.64 0.64 92 1004.6
20260506192101 47 112 0.0 0.0 0.07 0.64 0.64 93 1004.9
20260506191557 46 15 0.0 0.0 0.07 0.64 0.64 92 1004.9
20260506191053 46 227 0.0 0.0 0.07 0.63 0.63 93 1005.7
20260506190551 46 48 0.0 0.0 0.14 0.63 0.63 92 1005.4
20260506190048 47 56 0.0 0.0 0.14 0.61 0.61 93 1005.4
20260506185545 46 188 0.0 0.0 0.07 0.60 0.60 92 1005.7
20260506185041 47 204 0.0 0.0 0.07 0.59 0.59 93 1005.4
20260506184539 46 206 0.0 0.0 0.07 0.59 0.59 92 1005.4
20260506184036 46 229 0.0 0.0 0.07 0.58 0.58 92 1004.9
20260506183532 47 203 0.0 0.0 0.07 0.58 0.58 92 1005.4
20260506183028 46 327 0.0 0.0 0.14 0.57 0.57 92 1005.7
20260506182526 47 154 0.0 0.0 0.07 0.54 0.54 92 1006.1
20260506182023 47 227 0.0 0.0 0.07 0.54 0.54 92 1006.1
20260506181521 47 147 0.0 0.0 0.07 0.53 0.53 92 1005.7
20260506181018 47 102 0.0 0.0 0.07 0.53 0.53 92 1005.4
20260506180514 46 166 0.0 0.0 0.07 0.52 0.52 92 1005.7
20260506180011 46 110 0.0 0.0 0.07 0.52 0.52 92 1005.7
20260506175507 46 114 0.0 0.0 0.14 0.52 0.52 92 1006.1
20260506175004 47 212 0.0 0.0 0.14 0.51 0.51 92 1006.4
20260506174503 46 68 0.0 0.0 0.14 0.50 0.50 92 1006.4
20260506173958 47 40 0.0 0.0 0.07 0.48 0.48 92 1006.4
20260506173456 47 177 0.0 0.0 0.07 0.47 0.47 92 1006.4
20260506172952 47 93 0.0 0.0 0.07 0.46 0.46 92 1006.4
20260506172450 47 173 0.0 0.0 0.14 0.46 0.46 92 1007.1
20260506171946 48 198 0.0 0.0 0.14 0.45 0.45 92 1006.7
20260506171443 47 223 0.0 0.0 0.07 0.44 0.44 92 1007.1
20260506170941 48 189 0.0 0.0 0.07 0.43 0.43 92 1007.1
20260506170438 47 190 0.0 0.0 0.14 0.43 0.43 92 1007.1
20260506165936 47 184 0.0 0.0 0.14 0.40 0.40 92 1007.4
20260506165434 47 190 0.0 0.0 0.14 0.40 0.40 92 1007.4
20260506164930 47 197 0.0 0.0 0.07 0.38 0.38 92 1007.4
20260506164426 47 186 0.0 0.0 0.21 0.37 0.37 92 1007.1
20260506163919 48 180 0.0 0.0 0.21 0.35 0.35 92 1007.1
20260506163414 48 226 0.0 0.0 0.14 0.34 0.34 92 1007.1
20260506162909 47 249 0.0 0.0 0.14 0.32 0.32 92 1007.1
20260506162407 48 174 0.0 0.0 0.07 0.31 0.31 92 1006.7
20260506161904 47 175 0.0 0.0 0.00 0.30 0.30 92 1006.7
20260506161402 48 4 0.0 0.0 0.00 0.30 0.30 92 1006.4
20260506160859 48 177 0.0 0.0 0.00 0.30 0.30 92 1006.7
20260506160356 47 18 0.0 0.0 0.07 0.30 0.30 92 1007.1
20260506155854 48 181 0.0 0.0 0.00 0.30 0.30 92 1007.1
20260506155350 48 223 0.0 0.0 0.00 0.28 0.28 92 1007.7
20260506153508 48 210 0.0 0.0 0.07 0.27 0.27 92 1008.1
20260506153005 48 200 0.0 0.0 0.00 0.26 0.26 92 1007.7
20260506152502 48 193 0.0 0.0 0.00 0.26 0.26 92 1007.4
20260506152000 48 194 0.0 0.0 0.00 0.26 0.26 92 1007.4
20260506151458 48 162 0.0 0.0 0.00 0.26 0.26 92 1007.4
20260506150955 48 193 0.0 0.0 0.00 0.26 0.26 92 1007.7
20260506150450 48 182 0.0 0.0 0.00 0.26 0.26 92 1007.4
20260506145948 48 189 0.0 0.0 0.00 0.26 0.26 92 1007.4
20260506145444 47 213 0.0 0.0 0.00 0.26 0.26 92 1007.7
20260506144942 47 228 0.0 0.0 0.00 0.26 0.26 92 1007.7
20260506144438 47 264 0.0 0.0 0.00 0.26 0.26 92 1007.7
20260506143937 47 206 0.0 0.0 0.00 0.26 0.26 92 1007.7
20260506143433 47 163 0.0 0.0 0.00 0.26 0.26 92 1007.7
20260506142932 48 160 0.0 0.0 0.00 0.26 0.26 92 1007.7
20260506142429 47 246 0.0 0.0 0.00 0.26 0.26 92 1007.7
20260506141927 47 214 0.0 0.0 0.00 0.26 0.26 92 1007.7
20260506141425 47 236 0.0 0.0 0.00 0.26 0.26 92 1008.1
20260506140923 48 195 0.0 0.0 0.00 0.26 0.26 92 1007.7
20260506140419 48 295 0.0 0.0 0.00 0.26 0.26 92 1007.7
20260506135916 48 222 0.0 0.0 0.00 0.26 0.26 92 1007.7
20260506135413 48 187 0.0 0.0 0.00 0.26 0.26 92 1007.7
20260506134909 47 170 0.0 0.0 0.00 0.26 0.26 92 1007.7
20260506134406 48 231 0.0 0.0 0.00 0.26 0.26 93 1008.1
20260506133903 48 207 0.0 0.0 0.00 0.26 0.26 93 1007.7
20260506133359 47 246 0.0 2.0 0.00 0.26 0.26 93 1008.1
20260506132856 47 240 0.0 2.0 0.00 0.26 0.26 93 1008.1
20260506132353 47 241 0.0 0.0 0.00 0.26 0.26 93 1007.7
20260506131851 48 238 0.0 5.0 0.00 0.26 0.26 93 1008.1
20260506131347 47 263 0.0 0.0 0.00 0.26 0.26 93 1007.7
20260506130845 48 254 0.0 0.0 0.00 0.26 0.26 93 1008.1
20260506130341 47 249 0.0 0.0 0.00 0.26 0.26 93 1007.4
20260506125839 47 146 0.0 0.0 0.00 0.26 0.26 93 1007.1
20260506125337 48 290 0.0 0.0 0.00 0.26 0.26 93 1007.4
20260506124835 47 220 0.0 0.0 0.00 0.26 0.26 93 1007.4
20260506124332 47 210 0.0 0.0 0.00 0.26 0.26 93 1007.4
20260506123830 47 219 0.0 0.0 0.00 0.26 0.26 93 1007.4
20260506123328 47 190 0.0 0.0 0.00 0.26 0.26 93 1007.1
20260506122825 47 228 0.0 0.0 0.00 0.26 0.26 93 1007.4
20260506122322 47 210 0.0 0.0 0.00 0.26 0.26 93 1007.1
20260506121820 47 232 0.0 0.0 0.00 0.26 0.26 93 1006.7
20260506121317 47 179 0.0 0.0 0.07 0.26 0.26 93 1007.1
20260506120814 47 201 0.0 0.0 0.07 0.26 0.26 93 1007.1
20260506120312 47 171 0.0 0.0 0.00 0.25 0.25 93 1007.4
20260506115809 47 204 0.0 0.0 0.00 0.25 0.25 93 1007.4
20260506115307 47 181 0.0 0.0 0.00 0.25 0.25 93 1007.1
20260506114804 47 176 0.0 0.0 0.00 0.25 0.25 93 1007.1
20260506114302 47 213 0.0 5.0 0.00 0.25 0.25 93 1007.4
20260506113800 47 219 0.0 0.0 0.00 0.25 0.25 93 1007.4
20260506113258 47 190 2.0 2.0 0.00 0.25 0.25 93 1007.1
20260506112754 47 162 0.0 0.0 0.07 0.25 0.25 93 1007.1
20260506112251 47 167 0.0 0.0 0.07 0.25 0.25 93 1007.1
20260506111749 47 107 0.0 0.0 0.00 0.24 0.24 92 1007.4
20260506111247 47 188 0.0 0.0 0.07 0.24 0.24 92 1007.4
20260506110743 47 183 0.0 0.0 0.07 0.24 0.24 93 1007.4
20260506110241 46 175 0.0 0.0 0.00 0.22 0.22 92 1007.4
20260506105737 46 197 0.0 0.0 0.00 0.22 0.22 92 1007.4
20260506105234 46 205 0.0 0.0 0.00 0.22 0.22 92 1007.1
20260506104732 46 216 0.0 0.0 0.00 0.22 0.22 92 1007.1
20260506104229 46 145 0.0 2.0 0.00 0.22 0.22 92 1007.4
20260506103727 46 194 0.0 0.0 0.00 0.22 0.22 92 1007.4
20260506103224 46 184 0.0 8.0 0.07 0.22 0.22 92 1007.4
20260506102721 46 212 0.0 0.0 0.07 0.22 0.22 92 1007.7
20260506102220 46 196 0.0 0.0 0.00 0.21 0.21 92 1007.4
20260506101716 46 174 0.0 0.0 0.00 0.21 0.21 92 1007.7
20260506101212 46 235 0.0 0.0 0.07 0.21 0.21 92 1007.4
20260506100711 46 204 0.0 0.0 0.00 0.21 0.21 92 1007.4
20260506100208 47 217 0.0 0.0 0.07 0.20 0.20 92 1007.1
20260506095707 47 191 0.0 0.0 0.07 0.20 0.20 92 1007.4
20260506095203 47 176 0.0 0.0 0.07 0.19 0.19 92 1007.1
20260506094700 47 140 0.0 0.0 0.07 0.19 0.19 92 1007.1
20260506094158 47 224 0.0 0.0 0.00 0.18 0.18 92 1007.4
20260506093657 47 259 0.0 0.0 0.00 0.18 0.18 92 1007.1
20260506093153 48 183 0.0 0.0 0.00 0.18 0.18 92 1006.7
20260506092651 48 181 0.0 0.0 0.00 0.18 0.18 92 1006.7
20260506092148 48 202 0.0 0.0 0.07 0.18 0.18 92 1006.7
20260506091646 48 185 0.0 0.0 0.07 0.18 0.18 92 1006.7
20260506091143 48 193 0.0 0.0 0.00 0.17 0.17 92 1006.7
20260506090641 48 219 0.0 0.0 0.00 0.17 0.17 92 1006.7
20260506090137 48 211 0.0 0.0 0.00 0.17 0.17 92 1006.7
20260506085634 48 222 0.0 0.0 0.07 0.17 0.17 92 1006.4
20260506085130 48 212 0.0 0.0 0.07 0.17 0.17 92 1006.4
20260506084627 48 197 0.0 0.0 0.00 0.15 0.15 92 1006.4
20260506084124 48 277 4.0 5.0 0.00 0.15 0.15 92 1006.4
20260506083621 48 193 0.0 0.0 0.00 0.15 0.15 92 1006.4
20260506083119 48 140 0.0 5.0 0.07 0.15 0.15 92 1006.7
20260506082615 48 221 1.0 2.0 0.07 0.15 0.15 92 1006.7
20260506082111 49 226 0.0 13.0 0.00 0.14 0.14 92 1006.7
20260506081609 49 195 0.0 0.0 0.00 0.14 0.14 92 1006.4
20260506081106 49 41 0.0 5.0 0.00 0.14 0.14 92 1006.4
20260506080604 50 296 0.0 0.0 0.00 0.14 0.14 92 1006.4
20260506073044 53 197 0.0 0.0 0.14 0.09 0.09 93 1005.7
20260506072541 53 226 0.0 0.0 0.07 0.08 0.08 93 1005.7
20260506072039 53 230 0.0 0.0 0.00 0.07 0.07 93 1005.7
20260506071537 53 213 0.0 0.0 0.00 0.07 0.07 93 1005.4
20260506071034 53 207 0.0 0.0 0.00 0.07 0.07 93 1005.4
20260506070531 53 190 0.0 0.0 0.07 0.07 0.07 93 1004.9
20260506062508 55 197 0.0 0.0 0.00 0.00 0.00 93 1004.3
20260506062005 55 204 0.0 0.0 0.00 0.00 0.00 93 1003.9
20260506061501 54 199 0.0 0.0 0.00 0.00 0.00 93 1003.9
20260506060959 54 205 0.0 0.0 0.00 0.00 0.00 93 1003.9
20260506060457 54 204 0.0 0.0 0.00 0.00 0.00 93 1004.3
20260506050926 54 189 0.0 0.0 0.00 0.00 0.00 93 1003.9
20260506050423 54 202 0.0 0.0 0.00 0.00 0.00 93 1003.6
20260506044914 54 189 0.0 0.0 0.00 0.00 0.00 93 1003.6
20260506044412 54 208 0.0 0.0 0.00 0.00 0.00 93 1003.6
20260506043909 54 236 0.0 0.0 0.00 0.00 0.00 93 1003.2
20260506043406 54 176 0.0 0.0 0.00 0.00 0.00 93 1003.2
20260506042904 54 169 0.0 0.0 0.00 0.00 0.00 93 1002.9
20260506042403 54 172 0.0 0.0 0.00 0.00 0.00 93 1002.9
20260506041901 53 158 0.0 0.0 0.00 0.00 0.00 93 1002.9
20260506041358 53 172 0.0 0.0 0.00 0.00 0.00 93 1003.2
20260506040855 54 204 0.0 0.0 0.00 0.00 0.00 93 1002.9
20260506040352 54 194 0.0 0.0 0.00 0.00 0.00 93 1002.6
20260506035848 53 200 0.0 0.0 0.00 0.28 0.28 92 1002.6
20260506035346 53 192 0.0 0.0 0.00 0.28 0.28 93 1002.6
20260506034843 53 187 0.0 0.0 0.00 0.28 0.28 92 1002.6
20260506034340 53 187 0.0 0.0 0.00 0.28 0.28 92 1002.6
20260506033837 53 189 0.0 0.0 0.00 0.28 0.28 92 1002.6
20260506033334 54 202 0.0 0.0 0.00 0.28 0.28 92 1002.2
20260506032831 54 202 0.0 0.0 0.00 0.28 0.28 92 1002.6
20260506032327 54 190 0.0 0.0 0.00 0.28 0.28 92 1002.6
20260506031825 54 204 0.0 0.0 0.00 0.28 0.28 92 1002.6
20260506031322 55 204 0.0 0.0 0.00 0.28 0.28 92 1002.6
20260506030819 55 188 0.0 0.0 0.00 0.28 0.28 92 1002.6
20260506030317 55 181 0.0 0.0 0.00 0.28 0.28 92 1002.6
20260506025814 55 204 0.0 0.0 0.00 0.28 0.28 92 1002.6
20260506025310 55 218 0.0 0.0 0.00 0.28 0.28 92 1002.6
20260506024807 55 229 0.0 0.0 0.00 0.28 0.28 92 1002.6
20260506024304 55 176 0.0 0.0 0.00 0.28 0.28 92 1002.6
20260506023800 55 202 0.0 0.0 0.00 0.28 0.28 92 1002.6
20260506023258 55 192 0.0 0.0 0.00 0.28 0.28 92 1002.2
20260506022754 55 228 0.0 0.0 0.00 0.28 0.28 92 1002.6
20260506022252 55 171 0.0 0.0 0.00 0.28 0.28 92 1002.2
20260506021750 55 240 0.0 2.0 0.00 0.28 0.28 92 1002.2
20260506021246 55 298 0.0 0.0 0.00 0.28 0.28 92 1002.6
20260506020743 55 194 0.0 2.0 0.00 0.28 0.28 92 1002.6
20260506020241 56 162 0.0 0.0 0.00 0.28 0.28 92 1002.2
20260506015738 56 164 3.0 5.0 0.00 0.28 0.28 92 1002.2
20260506015236 56 178 0.0 0.0 0.00 0.28 0.28 92 1002.2
20260506014732 56 182 0.0 0.0 0.00 0.28 0.28 92 1002.2
20260506014229 56 179 0.0 0.0 0.00 0.28 0.28 92 1002.2
20260506013726 56 182 0.0 0.0 0.00 0.28 0.28 92 1002.2
20260506013223 56 147 0.0 2.0 0.00 0.28 0.28 92 1002.2
20260506012719 56 199 0.0 2.0 0.00 0.28 0.28 92 1002.2
20260506012216 56 195 0.0 0.0 0.00 0.28 0.28 92 1001.9
20260506011713 56 136 0.0 0.0 0.00 0.28 0.28 92 1001.9
20260506011209 56 212 0.0 5.0 0.00 0.28 0.28 92 1001.9
20260506010708 56 199 0.0 8.0 0.00 0.28 0.28 91 1001.6
20260506010205 56 186 0.0 5.0 0.00 0.28 0.28 91 1001.9
20260506005657 56 266 0.0 8.0 0.00 0.28 0.28 91 1001.6
20260506005153 56 183 0.0 0.0 0.00 0.28 0.28 91 1001.6
20260506004649 56 182 0.0 0.0 0.00 0.28 0.28 91 1001.6
20260506004147 56 154 0.0 0.0 0.00 0.28 0.28 91 1001.6
20260506003643 56 250 0.0 0.0 0.00 0.28 0.28 91 1001.6
20260506003139 56 177 0.0 2.0 0.00 0.28 0.28 91 1001.2
20260506002635 57 187 2.0 5.0 0.00 0.28 0.28 91 1000.9
20260506002132 56 48 0.0 0.0 0.00 0.28 0.28 91 1000.4
20260506001628 56 156 0.0 8.0 0.00 0.28 0.28 91 1000.9
20260506001125 56 270 0.0 0.0 0.00 0.28 0.28 91 1000.9
20260506000622 56 148 0.0 2.0 0.00 0.28 0.28 91 1000.9
20260506000119 56 160 0.0 0.0 0.00 0.28 0.28 91 1000.9
20260505235618 56 163 0.0 0.0 0.00 0.28 0.28 91 1000.4
20260505235114 56 180 0.0 8.0 0.00 0.28 0.28 91 1000.4
20260505234611 56 183 0.0 5.0 0.00 0.28 0.28 91 1000.4
20260505234108 56 194 0.0 5.0 0.00 0.28 0.28 91 1000.4
20260505233606 56 189 0.0 8.0 0.00 0.28 0.28 91 1000.4
20260505233102 56 266 2.0 5.0 0.00 0.28 0.28 90 1000.1
20260505232600 56 138 0.0 10.0 0.00 0.28 0.28 90 1000.1
20260505232058 57 197 0.0 8.0 0.00 0.28 0.28 90 1000.1
20260505231554 57 231 0.0 0.0 0.00 0.28 0.28 90 1000.1
20260505231053 57 179 0.0 5.0 0.00 0.28 0.28 90 999.8
20260505230550 57 166 0.0 8.0 0.00 0.28 0.28 89 999.8
20260505230046 57 173 2.0 2.0 0.00 0.28 0.28 89 999.8
20260505225543 57 151 3.0 5.0 0.00 0.28 0.28 89 999.8
20260505225039 57 208 3.0 5.0 0.00 0.28 0.28 89 999.8
20260505224536 57 146 0.0 2.0 0.00 0.28 0.28 89 999.4
20260505224034 57 255 0.0 0.0 0.00 0.28 0.28 89 999.4
20260505223531 57 214 2.0 8.0 0.00 0.28 0.28 88 999.8
20260505223027 57 191 3.0 5.0 0.00 0.28 0.28 88 999.8
20260505222523 57 179 0.0 0.0 0.00 0.28 0.28 87 999.8
20260505222019 57 233 0.0 0.0 0.00 0.28 0.28 87 999.8
20260505221517 57 207 2.0 5.0 0.00 0.28 0.28 86 999.8
20260505221013 57 181 0.0 5.0 0.07 0.28 0.28 86 999.8
20260505220510 57 25 0.0 5.0 0.07 0.28 0.28 85 999.8
20260505220008 57 241 0.0 5.0 0.14 0.27 0.27 85 999.8
20260505215506 57 249 2.0 10.0 0.14 0.26 0.26 85 1000.1